[[{"header":{"parameterUnit":"m.s-1","parameterCategory":1,"la1":30.2991,"la2":30.254,"lo1":-89.0895,"lo2":-89.0444,"dy":0.0017,"dx":0.0017,"nx":28,"ny":28,"refTime":"2024-08-23T03:00:00:Z","depth":0,"parameterNumber":2,"parameterNumberName":"U-component_of_WINDS"},"data":[0,0,0,0,0,0,0,0,0,0,0,0,0,0,0,0,0,0,0,0,0,0,0,0,0,0,0,0,0,0,0,0,0,0,0,0,0,0,0,0,0,0,0,0,0,0,0,0,0,0,0,0,0,0,0,0,0,0,-5.5419,-5.5419,0,-5.5368,-5.5368,-5.5367,-5.5228,-5.5225,-5.5222,-5.5219,-5.5171,-5.5172,-5.5173,0,0,0,0,0,0,0,0,0,0,0,0,0,-5.5401,-5.5402,-5.5419,-5.5419,-5.5418,-5.5368,-5.5368,-5.5367,-5.5228,-5.5225,-5.5221,-5.5218,-5.517,-5.5172,-5.5174,0,0,0,0,0,0,0,0,0,0,0,0,0,-5.5386,-5.5403,-5.5419,-5.5343,-5.5335,-5.5369,-5.5368,-5.5367,-5.5229,-5.5225,-5.522,-5.5216,-5.5169,-5.5172,-5.5174,-5.5278,0,0,-5.5181,-5.5182,0,0,0,0,0,0,0,0,-5.5387,-5.5387,-5.5355,-5.5348,-5.534,-5.53,-5.5343,-5.5337,-5.523,-5.527,-5.5219,-5.5214,-5.5217,-5.5215,-5.5216,-5.5276,-5.5274,-5.5181,-5.5182,-5.5183,-5.5184,0,0,0,0,0,0,0,-5.5388,-5.5388,-5.5399,-5.5354,-5.5345,-5.5312,-5.5305,-5.5342,-5.527,-5.5266,-5.5256,-5.5251,-5.5212,-5.5214,-5.5214,-5.5273,-5.5181,-5.5183,-5.5184,-5.5185,-5.5417,-5.5421,0,0,0,0,0,0,-5.5399,-5.539,-5.5401,-5.5398,-5.5353,-5.5316,-5.5308,-5.5317,-5.5269,-5.5257,-5.5255,-5.5245,-5.5212,-5.5211,-5.5212,-5.5329,-5.5183,-5.5185,-5.5187,-5.5412,-5.5418,-5.5423,0,0,0,0,0,0,-5.54,-5.5402,-5.5403,-5.5391,-5.5388,-5.5322,-5.5333,-5.5319,-5.532,-5.5261,-5.5248,-5.527,-5.5209,-5.5208,-5.5262,-5.5326,-5.5187,-5.5189,-5.5406,-5.5414,-5.5421,-5.5567,0,0,0,0,0,0,-5.54,-5.5403,-5.544,-5.5393,-5.539,-5.5453,-5.5337,-5.5321,-5.5324,-5.531,-5.5271,-5.526,-5.5205,-5.526,-5.5265,-5.5326,-5.519,-5.54,-5.541,-5.5418,-5.5556,-5.5578,-5.5597,0,0,0,0,0,-5.54,-5.5484,-5.5443,-5.5445,-5.5435,-5.5457,-5.5456,-5.539,-5.5329,-5.5367,-5.533,-5.5261,-5.5319,-5.5267,-5.5271,-5.5334,-5.5396,-5.5407,-5.5418,-5.5547,-5.5574,-5.5597,0,0,0,0,0,0,-5.5541,-5.5476,-5.543,-5.5501,-5.5486,-5.5434,-5.5479,-5.5421,-5.5423,-5.541,-5.533,-5.5322,-5.5387,-5.5367,-5.5309,-5.5433,-5.5346,-5.5359,-5.5443,-5.5468,-5.5488,-5.5491,-5.5192,0,0,0,0,0,-5.5581,-5.5603,-5.5546,-5.5615,-5.5609,-5.5547,-5.5554,-5.5505,-5.5486,-5.5478,-5.5445,-5.543,-5.5445,-5.5456,-5.5466,-5.5554,-5.5543,-5.56,-5.5621,-5.5638,-5.5648,-5.5692,-5.5716,-5.5458,-5.5458,-5.5458,0,0,-5.5663,-5.563,-5.5649,-5.5642,-5.5624,-5.565,-5.5541,-5.5573,-5.5592,-5.5484,-5.5531,-5.5507,-5.5486,-5.5557,-5.5587,-5.5542,-5.5718,-5.5651,-5.5666,-5.5666,-5.5706,-5.573,-5.5752,-5.5466,-5.5464,-5.5463,0,0,-5.5824,-5.5803,-5.5856,-5.5841,-5.5816,-5.5774,-5.5787,-5.5745,-5.5724,-5.5771,-5.569,-5.5713,-5.574,-5.5728,-5.5725,-5.5886,-5.5823,-5.5892,-5.5998,-5.6042,-5.6063,-5.608,-5.6136,-5.6157,-5.5904,-5.5904,-5.5904,0,-5.5929,-5.5963,-5.5892,-5.5929,-5.5929,-5.5833,-5.5887,-5.5877,-5.5857,-5.5859,-5.581,-5.5842,-5.5821,-5.5888,-5.5927,-5.5929,-5.5942,-5.5894,-5.6065,-5.6082,-5.6098,-5.615,-5.6171,-5.5912,-5.5911,-5.5911,-5.591,0,-5.6093,-5.6118,-5.6166,-5.6147,-5.6153,-5.6199,-5.6137,-5.6152,-5.6104,-5.6068,-5.6118,-5.609,-5.6093,-5.6106,-5.606,-5.6167,-5.6139,-5.608,-5.599,-5.6132,-5.6179,-5.6199,-5.5924,-5.5921,-5.5919,-5.5917,0,0,-5.6337,-5.6281,-5.63,-5.629,-5.6257,-5.6275,-5.6319,-5.6321,-5.6334,-5.6326,-5.6359,-5.6386,-5.633,-5.6328,-5.628,-5.632,-5.6447,-5.6254,-5.6252,-5.6289,-5.6562,-5.6605,-5.663,-5.6407,-5.6411,-5.6414,-5.6563,0,-5.6487,-5.6555,-5.6494,-5.6574,-5.6597,-5.6508,-5.6545,-5.653,-5.6499,-5.6515,-5.6481,-5.65,-5.6426,-5.6424,-5.6459,-5.6424,-5.65,-5.6413,-5.6437,-5.6439,-5.6441,-5.6655,-5.67,-5.6842,-5.6582,-5.6585,-5.6587,0,-5.667,-5.6668,-5.675,-5.6712,-5.6719,-5.6754,-5.6751,-5.6768,-5.675,-5.6724,-5.6723,-5.6665,-5.6706,-5.6622,-5.6678,-5.662,-5.6627,-5.6612,-5.6616,-5.6613,-5.6519,-5.6655,-5.6886,-5.6907,-5.6616,-5.6614,-5.6612,0,-5.6837,-5.6856,-5.6907,-5.6903,-5.686,-5.6886,-5.687,-5.6847,-5.6853,-5.6852,-5.6855,-5.686,-5.6862,-5.6868,-5.6814,-5.6758,-5.6876,-5.6788,-5.6856,-5.6857,-5.6881,-5.688,-5.7114,-5.6892,-5.6892,-5.6892,-5.6891,0,-5.7009,-5.7062,-5.6982,-5.7013,-5.707,-5.7002,-5.7062,-5.7037,-5.7018,-5.7043,-5.6969,-5.6995,-5.6923,-5.6943,-5.6901,-5.6953,-5.6955,-5.6936,-5.6924,-5.6941,-5.6943,-5.6941,-5.6929,-5.6897,-5.6896,-5.6895,-5.6894,0,-5.7203,-5.7152,-5.7201,-5.7158,-5.7149,-5.7193,-5.7156,-5.7184,-5.7149,-5.7183,-5.7187,-5.7133,-5.7152,-5.7099,-5.7111,-5.7083,-5.7157,-5.7131,-5.7163,-5.7153,-5.7223,-5.7216,-5.7462,-5.749,-5.7254,-5.7256,-5.7258,0,-5.7314,-5.7353,-5.7314,-5.7325,-5.7313,-5.7333,-5.7338,-5.7274,-5.7283,-5.7266,-5.7297,-5.731,-5.7316,-5.7351,-5.7313,-5.7322,-5.7293,-5.7379,-5.7294,-5.731,-5.7291,-5.7288,-5.7291,-5.7395,-5.7398,-5.7401,-5.7402,0,-5.7516,-5.7489,-5.7499,-5.7501,-5.7509,-5.7508,-5.7502,-5.7516,-5.7448,-5.7462,-5.748,-5.7485,-5.7497,-5.751,-5.7511,-5.7496,-5.7438,-5.743,-5.7446,-5.7462,-5.7478,-5.7468,-5.7207,-5.7424,-5.7422,-5.742,-5.7419,-5.7418,-5.767,-5.77,-5.7677,-5.7691,-5.768,-5.7677,-5.77,-5.7669,-5.7683,-5.7686,-5.7649,-5.7675,-5.7658,-5.7653,-5.7644,-5.7664,-5.7625,-5.7648,-5.7654,-5.766,-5.767,-5.7478,-5.7665,-5.7664,-5.7663,-5.7663,-5.7662,0,-5.7865,-5.7847,-5.7861,-5.7854,-5.7866,-5.7811,-5.7802,-5.7816,-5.7839,-5.7828,-5.7836,-5.7857,-5.7871,-5.7836,-5.7844,-5.7868,-5.7841,-5.7872,-5.7868,-5.7865,-5.7706,-5.769,-5.7893,-5.7893,-5.7893,-5.7893,-5.7893,-5.7893,-5.7968,-5.8016,-5.7987,-5.803,-5.8011,-5.8035,-5.8035,-5.8031,-5.8022,-5.8049,-5.8059,-5.8036,-5.8016,-5.8023,-5.8033,-5.8023,-5.8028,-5.8068,-5.8048,-5.7899,-5.7876,-5.7855,-5.7839,-5.807,-5.807,-5.8205,-5.8206,-5.8207]},{"header":{"parameterUnit":"m.s-1","parameterCategory":1,"la1":30.2991,"la2":30.254,"lo1":-89.0895,"lo2":-89.0444,"dy":0.0017,"dx":0.0017,"nx":28,"ny":28,"refTime":"2024-08-23T03:00:00:Z","depth":0,"parameterNumber":3,"parameterNumberName":"V-component_of_WINDS"},"data":[0,0,0,0,0,0,0,0,0,0,0,0,0,0,0,0,0,0,0,0,0,0,0,0,0,0,0,0,0,0,0,0,0,0,0,0,0,0,0,0,0,0,0,0,0,0,0,0,0,0,0,0,0,0,0,0,0,0,2.2904,2.2904,0,2.2972,2.2972,2.2973,2.3044,2.3045,2.3046,2.3047,2.3112,2.3113,2.3114,0,0,0,0,0,0,0,0,0,0,0,0,0,2.2833,2.2834,2.2904,2.2905,2.2905,2.2972,2.2972,2.2973,2.3044,2.3045,2.3046,2.3047,2.3112,2.3113,2.3114,0,0,0,0,0,0,0,0,0,0,0,0,0,2.2878,2.2834,2.2904,2.2949,2.2953,2.2971,2.2973,2.2974,2.3044,2.3045,2.3047,2.3048,2.3112,2.3113,2.3114,2.3092,0,0,2.3118,2.3119,0,0,0,0,0,0,0,0,2.2876,2.2881,2.2941,2.2946,2.2951,2.3001,2.2972,2.3013,2.3043,2.3009,2.3047,2.3049,2.3074,2.3078,2.3088,2.3095,2.3098,2.3118,2.3119,2.3119,2.312,0,0,0,0,0,0,0,2.2872,2.2878,2.293,2.2942,2.2948,2.2965,2.2973,2.298,2.3032,2.3012,2.3018,2.3025,2.3077,2.3086,2.309,2.3099,2.3118,2.3119,2.312,2.312,2.3093,2.3092,0,0,0,0,0,0,2.2863,2.2875,2.2928,2.2933,2.2916,2.2965,2.2974,2.2983,2.3032,2.3041,2.3024,2.3028,2.3084,2.3088,2.3092,2.307,2.3119,2.3121,2.3121,2.3094,2.3093,2.3091,0,0,0,0,0,0,2.2861,2.2867,2.2926,2.2905,2.2914,2.2965,2.2974,2.2984,2.2994,2.3041,2.305,2.3024,2.3085,2.3091,2.3092,2.3074,2.3121,2.3122,2.3096,2.3094,2.3092,2.3025,0,0,0,0,0,0,2.2859,2.2866,2.2858,2.2905,2.2915,2.2925,2.2973,2.2984,2.2996,2.3002,2.3044,2.3052,2.3086,2.309,2.3093,2.3076,2.3123,2.3098,2.3095,2.3093,2.3029,2.3021,2.3014,0,0,0,0,0,2.2856,2.2835,2.2857,2.2863,2.2907,2.2923,2.2929,2.2971,2.2994,2.2987,2.3018,2.3051,2.3075,2.309,2.3094,2.3077,2.3099,2.3096,2.3093,2.3033,2.3023,2.3014,0,0,0,0,0,0,2.2783,2.2842,2.2867,2.2861,2.2887,2.2935,2.2927,2.2958,2.2977,2.2982,2.3031,2.304,2.3036,2.3057,2.3072,2.3059,2.3092,2.3089,2.3045,2.3036,2.3028,2.3023,2.3124,0,0,0,0,0,2.2767,2.2777,2.2827,2.2817,2.2829,2.2876,2.2885,2.2915,2.2943,2.2953,2.2984,2.3009,2.3023,2.3031,2.3046,2.3033,2.3043,2.3024,2.3016,2.301,2.3006,2.3002,2.2994,2.308,2.308,2.308,0,0,2.2732,2.2766,2.2769,2.2804,2.2827,2.2836,2.2884,2.2891,2.2897,2.2954,2.2958,2.2982,2.3013,2.3008,2.3007,2.3025,2.2985,2.3005,2.3,2.3,2.2998,2.299,2.2983,2.3078,2.3078,2.3079,0,0,2.2674,2.27,2.2696,2.2719,2.2755,2.2786,2.2785,2.283,2.2848,2.2853,2.2896,2.2905,2.2927,2.2948,2.2961,2.2914,2.2945,2.2917,2.2877,2.2872,2.2865,2.286,2.2843,2.2836,2.2914,2.2914,2.2914,0,2.2626,2.2642,2.2689,2.2694,2.2708,2.2762,2.2757,2.2777,2.2815,2.2823,2.2844,2.2874,2.2899,2.29,2.2888,2.2897,2.2897,2.2912,2.2863,2.2857,2.2853,2.2837,2.2831,2.291,2.2911,2.2911,2.2911,0,2.2582,2.2592,2.2584,2.2621,2.2635,2.2634,2.2681,2.2689,2.2719,2.2748,2.2753,2.2785,2.2808,2.2811,2.2839,2.2816,2.2826,2.2854,2.2888,2.284,2.2827,2.2821,2.2905,2.2906,2.2907,2.2908,0,0,2.2477,2.2543,2.2539,2.2558,2.2603,2.2611,2.2613,2.2638,2.2644,2.2669,2.2672,2.2691,2.2718,2.2733,2.2764,2.276,2.2721,2.2788,2.279,2.2775,2.2699,2.2677,2.267,2.2742,2.2742,2.2741,2.2696,0,2.2427,2.2436,2.248,2.2476,2.2486,2.2539,2.2541,2.2568,2.2596,2.2609,2.2639,2.2652,2.2686,2.2696,2.2694,2.2726,2.2706,2.273,2.2745,2.2745,2.2735,2.2663,2.264,2.2596,2.2691,2.269,2.2689,0,2.2368,2.2392,2.239,2.2436,2.2442,2.2443,2.247,2.2482,2.2514,2.2535,2.2553,2.2588,2.2594,2.2627,2.2635,2.2651,2.266,2.2676,2.2676,2.2678,2.2714,2.2663,2.2583,2.2576,2.2681,2.2682,2.2683,0,2.2293,2.2324,2.2327,2.2342,2.2395,2.2395,2.2417,2.2452,2.2464,2.2487,2.2496,2.2519,2.2531,2.2548,2.2588,2.2609,2.2592,2.2628,2.2609,2.2608,2.2602,2.2602,2.2522,2.2609,2.2609,2.2609,2.2609,0,2.2232,2.2228,2.2295,2.2296,2.2294,2.2344,2.2341,2.2368,2.2398,2.2406,2.2452,2.2458,2.2512,2.2524,2.2556,2.2558,2.2563,2.258,2.2588,2.2575,2.2573,2.2581,2.2585,2.2607,2.2608,2.2608,2.2608,0,2.2147,2.2191,2.2198,2.2249,2.2262,2.2258,2.2302,2.2306,2.2338,2.2347,2.2352,2.2401,2.2418,2.2461,2.2488,2.251,2.2503,2.2519,2.2492,2.2498,2.2476,2.2478,2.2399,2.2391,2.2482,2.2481,2.248,0,2.2104,2.2103,2.2155,2.2165,2.2186,2.22,2.2214,2.2263,2.2275,2.2313,2.2312,2.2333,2.2353,2.2377,2.2415,2.2436,2.2453,2.2424,2.2456,2.2444,2.2452,2.2452,2.2452,2.2416,2.2415,2.2414,2.2413,0,2.2025,2.2047,2.2066,2.2093,2.2109,2.2132,2.2157,2.2162,2.2218,2.2229,2.2248,2.2263,2.2293,2.2313,2.2341,2.2363,2.2397,2.2403,2.24,2.2386,2.2371,2.2379,2.2473,2.2404,2.2405,2.2406,2.2406,2.2407,2.196,2.1962,2.2,2.2019,2.2045,2.2068,2.2074,2.2108,2.2125,2.2154,2.2182,2.2198,2.2232,2.2273,2.2293,2.2306,2.2324,2.2318,2.2317,2.2315,2.231,2.237,2.2311,2.2311,2.2312,2.2312,2.2312,0,2.1883,2.1911,2.1928,2.1964,2.1979,2.2013,2.2043,2.2054,2.2068,2.2097,2.2116,2.2138,2.2158,2.2198,2.2222,2.2225,2.2241,2.2229,2.223,2.2234,2.2292,2.2293,2.2216,2.2216,2.2216,2.2216,2.2216,2.2216,2.1845,2.1851,2.1878,2.1897,2.1924,2.1942,2.1956,2.1978,2.2002,2.2025,2.2043,2.207,2.2103,2.2131,2.2151,2.2162,2.2168,2.2152,2.2168,2.2221,2.223,2.2239,2.2239,2.2153,2.2152,2.2109,2.2108,2.2108]}]]